Location: Unnamed
(25.2826°S, 57.6099°W)
Time: 07:46:08
(UTC-04:00)

ACS3 Solar Sail - Visible Passes

Search period start: 16 January 2026 00:00
Search period end: 26 January 2026 00:00
Orbit: 896 x 981 km, 97.2° (Epoch: 16 January)

Date Brightness Start Highest point End Pass type
(mag) Time Alt. Az. Time Alt. Az. Time Alt. Az.
16 Jan 3.3 01:20:57 29° SSE 01:20:57 29° SSE 01:24:03 10° S visible
16 Jan 3.8 03:04:50 11° SW 03:04:50 11° SW 03:05:04 10° SW visible
17 Jan 3.2 01:35:11 31° S 01:35:11 31° S 01:38:12 10° S visible
18 Jan 3.1 01:49:25 30° S 01:49:25 30° S 01:52:13 10° S visible
19 Jan 4.4 00:19:46 10° SE 00:19:46 10° SE 00:19:51 10° SE visible
19 Jan 3.2 02:03:38 26° SSW 02:03:38 26° SSW 02:06:06 10° SSW visible
20 Jan 4.1 00:33:58 14° SE 00:33:58 14° SE 00:35:27 10° SSE visible
20 Jan 3.4 02:17:50 22° SW 02:17:50 22° SW 02:19:50 10° SSW visible
21 Jan 3.9 00:48:09 18° SE 00:48:09 18° SE 00:50:11 10° SSE visible
21 Jan 3.6 02:32:01 17° SW 02:32:01 17° SW 02:33:24 10° SSW visible
22 Jan 3.8 01:02:20 21° SSE 01:02:20 21° SSE 01:04:36 10° SSE visible
22 Jan 3.8 02:46:13 12° SW 02:46:13 12° SW 02:46:45 10° SW visible
23 Jan 3.6 01:16:30 24° SSE 01:16:30 24° SSE 01:18:49 10° S visible
24 Jan 3.5 01:30:39 24° S 01:30:39 24° S 01:32:52 10° S visible
25 Jan 3.5 01:44:47 23° S 01:44:47 23° S 01:46:48 10° S visible
